This is the latest recevied weather packets stored in our database for station/object EA3KZ-1. If no packets are shown the sender has not sent any weather packets the latest 10 day(s).
| Time | Temp. | Humidity | Pressure | Rain* | Wind** | Luminosity | Snow |
|---|---|---|---|---|---|---|---|
| 1787673330 | 32.22° C | 33% | 1008.1 hPa | 0 mm | - | - | - |
| 1787672727 | 31.67° C | 34% | 1008.3 hPa | 0 mm | - | - | - |
| 1787672125 | 32.22° C | 33% | 1008.2 hPa | 0 mm | - | - | - |
| 1787671522 | 32.22° C | 34% | 1008.4 hPa | 0 mm | - | - | - |
| 1787670919 | 31.67° C | 35% | 1008.5 hPa | 0 mm | - | - | - |
| 1787670317 | 31.67° C | 35% | 1008.5 hPa | 0 mm | - | - | - |
| 1787669774 | 32.22° C | 35% | 1008.4 hPa | 0 mm | - | - | - |
| 1787669172 | 32.22° C | 35% | 1008.6 hPa | 0 mm | - | - | - |
| 1787668569 | 32.22° C | 35% | 1008.7 hPa | 0 mm | - | - | - |
| 1787667967 | 31.67° C | 36% | 1008.8 hPa | 0 mm | - | - | - |
| 1787667364 | 32.22° C | 36% | 1008.8 hPa | 0 mm | - | - | - |
| 1787666761 | 32.22° C | 36% | 1008.7 hPa | 0 mm | - | - | - |
| 1787666159 | 32.22° C | 36% | 1008.7 hPa | 0 mm | - | - | - |
| 1787665556 | 31.67° C | 36% | 1009 hPa | 0 mm | - | - | - |
| 1787664953 | 31.67° C | 36% | 1009 hPa | 0 mm | - | - | - |
| 1787664351 | 32.22° C | 36% | 1009.1 hPa | 0 mm | - | - | - |
| 1787663748 | 31.67° C | 37% | 1009.3 hPa | 0 mm | - | - | - |
| 1787663146 | 31.11° C | 36% | 1009.3 hPa | 0 mm | - | - | - |
| 1787662543 | 31.67° C | 36% | 1009.5 hPa | 0 mm | - | - | - |
| 1787661940 | 32.22° C | 35% | 1009.3 hPa | 0 mm | - | - | - |
| 1787661338 | 31.67° C | 37% | 1009.4 hPa | 0 mm | - | - | - |
| 1787660735 | 31.11° C | 37% | 1009.4 hPa | 0 mm | - | - | - |
| 1787660133 | 31.11° C | 37% | 1009.5 hPa | 0 mm | - | - | - |
| 1787659530 | 30.56° C | 38% | 1009.5 hPa | 0 mm | - | - | - |
| 1787658928 | 31.11° C | 37% | 1009.5 hPa | 0 mm | - | - | - |
* Rain latest hour (hover to see other rain measurements)
** Current wind speed in m/s (hover to see current wind gust speed)